Temp
62 62 63 63 63 63 63 63 63 63 63 63 63 63 63 62 63 59 60 71 69 70 69 65 63 61 60 58 56 52 46 40 45 45 51 53 51 55 54 53 52 58 56 55 49
62 62 63 63 63 63 63 63 62 62 63 63 63 63 62 62 57 59 70 72 71 70 66 64 60 60 56 55 54 51 43 47 51 49 52 54 54 56 52 54 52 55 57 50 48
62 62 62 62 62 63 63 62 62 62 62 62 62 62 62 59 59 65 72 72 71 70 66 64 62 61 53 52 53 50 48 50 55 56 55 55 53 55 52 54 56 58 60 54 49
62 62 62 62 62 63 63 63 62 62 62 62 62 62 61 55 54 64 70 71 70 67 65 62 59 54 51 51 54 47 53 54 55 57 54 54 55 54 55 65 63 61 60 53 51
62 61 61 61 62 62 63 63 62 62 62 62 61 61 57 55 62 64 67 67 64 64 62 60 57 54 50 50 51 48 51 55 56 53 55 55 56 54 53 61 60 59 57 56 53
62 61 61 61 62 62 62 63 62 62 62 62 61 60 55 52 65 64 62 62 62 61 59 60 59 58 53 52 52 51 52 53 53 55 55 55 59 54 59 56 60 55 56 55 53
62 61 61 61 61 62 62 62 62 61 61 61 61 57 53 61 62 62 63 60 61 61 59 58 59 56 53 50 52 51 50 50 50 52 51 51 50 48 61 52 58 57 55 54 54
61 61 60 60 61 61 61 61 61 61 61 61 61 52 56 62 59 61 60 59 59 59 60 59 60 57 53 53 52 45 42 41 49 47 50 53 45 60 59 52 55 56 56 56 58
60 60 60 60 60 60 61 60 59 60 60 60 52 53 56 62 58 60 60 59 59 57 57 64 58 52 50 44 42 39 38 38 44 52 50 48 45 55 54 52 54 55 57 57 63
60 60 60 60 60 60 60 60 59 58 57 58 61 52 59 59 58 58 57 60 56 56 55 53 48 45 41 42 37 38 35 38 39 50 45 43 45 54 56 54 53 55 59 61 62
60 60 60 60 60 61 55 52 53 52 50 55 53 55 57 55 58 56 58 58 55 52 46 46 42 41 49 46 46 40 39 39 43 50 43 50 51 53 56 53 57 60 59 59 62
60 60 60 60 60 60 52 49 45 46 46 53 52 55 56 56 53 53 58 55 50 46 44 41 38 49 47 45 44 41 41 43 48 50 43 45 46 53 55 56 58 59 61 61 61
60 60 60 60 59 55 48 47 50 47 41 50 52 51 54 57 53 53 56 50 47 43 43 45 49 48 46 42 43 39 38 43 42 43 41 39 43 42 49 50 55 56 60 56 56
59 59 59 59 56 50 49 50 50 47 39 45 49 51 52 51 47 50 50 50 44 45 42 41 46 47 40 42 44 42 46 45 42 37 34 39 35 40 48 51 53 56 52 53 55
58 59 59 60 52 50 52 50 48 46 30 47 47 55 50 49 46 46 49 48 43 43 42 43 40 39 39 44 44 43 45 42 37 35 31 32 30 37 42 46 50 53 54 52 54
57 58 58 56 53 54 52 50 49 40 32 44 47 45 44 45 44 45 46 48 45 41 39 42 42 45 46 45 45 43 39 37 33 33 27 36 35 45 40 44 46 54 62 56 55
56 57 57 58 54 54 53 52 42 34 46 43 42 43 42 43 43 42 42 40 41 36 35 38 41 42 45 40 39 40 35 27 24 21 27 33 31 46 51 55 52 53 53 53 52
55 56 56 58 56 55 53 47 34 40 41 45 44 42 41 44 44 41 38 38 40 39 35 35 38 41 43 45 42 37 40 28 23 21 33 28 30 46 52 53 53 50 50 48 50
55 55 54 56 56 55 49 38 39 40 45 44 44 37 37 40 42 37 36 37 42 43 41 34 35 40 42 43 45 37 35 42 33 35 26 38 41 49 54 48 47 45 46 47 50
46 50 52 56 56 52 44 40 41 46 46 46 41 44 36 37 40 40 39 39 42 43 45 44 37 42 40 40 41 42 42 32 30 24 23 32 36 40 49 54 50 48 46 49 48
46 45 50 53 54 46 38 41 47 52 52 46 43 43 42 42 43 42 42 44 44 42 43 44 39 37 36 36 39 36 35 35 36 33 29 28 36 50 53 55 45 44 47 47 43
47 38 51 54 43 44 40 44 47 49 51 46 47 46 43 43 41 41 41 45 47 48 42 44 40 33 38 40 43 41 42 40 33 31 33 33 33 51 50 51 43 35 36 38 39
41 40 51 51 37 39 44 43 47 45 46 45 44 45 48 42 38 42 43 47 48 46 42 43 35 29 31 36 35 33 37 40 39 32 29 26 30 50 46 32 35 34 35 37 39
40 31 41 45 44 41 40 41 41 47 46 47 45 46 42 40 43 40 39 42 41 42 45 44 35 33 28 33 37 34 36 37 35 30 30 30 34 41 28 28 28 34 35 36 38
34 32 37 29 36 39 40 39 36 36 43 46 42 41 39 35 36 36 39 39 38 41 39 39 32 35 37 37 34 32 31 32 30 33 27 32 32 30 23 25 28 32 34 35 36
30 32 34 31 34 33 35 36 37 39 40 39 38 40 40 36 36 33 34 32 33 34 35 37 28 29 25 31 32 29 31 31 32 32 32 32 29 26 28 32 32 33 31 32 34
33 34 35 32 29 27 27 31 33 34 34 35 33 34 33 33 34 33 35 34 34 30 29 30 28 25 21 28 26 20 27 30 32 36 28 23 21 23 24 29 32 33 31 32 31
MSLP
1020.27 1020.05 1019.82 1019.67 1019.45 1019.20 1018.94 1018.67 1018.44 1018.21 1017.97 1017.70 1017.42 1017.14 1016.86 1016.53 1015.99 1015.98 1015.38 1013.52 1013.61 1013.94 1014.29 1014.99 1015.25 1015.53 1015.80 1016.43 1016.93 1017.60 1018.52 1018.74 1017.89 1017.09 1015.45 1014.57 1014.41 1013.71 1013.71 1013.97 1014.12 1013.94 1013.72 1013.50 1014.25
1020.37 1020.20 1019.95 1019.68 1019.48 1019.29 1019.05 1018.80 1018.51 1018.26 1018.04 1017.76 1017.48 1017.16 1016.88 1016.61 1016.21 1015.21 1013.11 1013.05 1013.29 1013.68 1014.34 1014.86 1015.40 1015.67 1016.29 1016.66 1017.09 1017.58 1018.43 1017.66 1016.46 1015.85 1015.01 1014.42 1014.27 1013.73 1013.78 1013.74 1013.72 1013.46 1013.20 1013.64 1014.39
1020.40 1020.23 1020.02 1019.74 1019.45 1019.21 1019.03 1018.76 1018.51 1018.20 1017.94 1017.73 1017.49 1017.16 1016.89 1016.69 1016.05 1013.78 1012.75 1013.14 1013.42 1013.72 1014.04 1014.57 1015.12 1015.56 1016.29 1016.62 1016.87 1017.23 1017.27 1016.43 1015.52 1015.04 1014.75 1014.44 1014.05 1013.59 1013.73 1013.32 1012.82 1012.95 1012.71 1013.31 1014.12
1020.34 1020.19 1020.01 1019.77 1019.47 1019.17 1018.85 1018.62 1018.37 1018.09 1017.78 1017.50 1017.28 1017.02 1016.61 1016.63 1015.52 1013.18 1012.93 1013.16 1013.67 1014.02 1014.49 1015.03 1015.56 1015.97 1016.34 1016.59 1016.37 1016.96 1016.12 1015.77 1015.05 1014.73 1014.70 1014.46 1013.87 1013.65 1013.57 1011.85 1011.54 1011.62 1011.97 1012.54 1013.34
1020.29 1020.12 1019.93 1019.70 1019.47 1019.14 1018.85 1018.53 1018.21 1017.92 1017.62 1017.34 1017.11 1016.79 1016.47 1016.22 1014.45 1013.07 1013.13 1013.45 1013.91 1014.25 1014.70 1015.24 1015.69 1016.11 1016.31 1016.22 1016.28 1016.44 1015.74 1015.34 1014.79 1014.86 1014.66 1014.39 1013.47 1013.70 1012.72 1011.03 1011.06 1011.58 1011.79 1011.93 1012.34
1020.21 1020.01 1019.86 1019.58 1019.29 1018.97 1018.62 1018.32 1017.96 1017.61 1017.38 1017.16 1016.99 1016.86 1016.52 1015.53 1012.87 1013.08 1013.39 1013.77 1014.02 1014.48 1014.89 1015.10 1015.27 1015.38 1015.81 1015.90 1016.08 1015.67 1015.55 1015.19 1014.84 1014.74 1014.50 1014.45 1012.92 1013.40 1011.08 1010.80 1010.86 1011.23 1010.91 1010.97 1011.44
1020.04 1019.87 1019.67 1019.50 1019.18 1018.78 1018.33 1017.92 1017.54 1017.17 1016.94 1016.85 1016.81 1016.80 1016.44 1013.77 1012.83 1013.18 1013.54 1013.88 1014.05 1014.27 1014.67 1014.90 1015.02 1015.29 1015.45 1015.58 1015.50 1015.63 1015.92 1015.23 1014.55 1013.98 1014.18 1014.04 1013.95 1012.49 1010.41 1010.92 1010.77 1010.28 1010.37 1010.13 1010.04
1019.97 1019.76 1019.58 1019.34 1019.07 1018.67 1018.12 1017.54 1017.02 1016.53 1016.25 1016.34 1016.70 1016.73 1015.22 1012.98 1013.11 1013.48 1013.62 1013.91 1014.07 1014.25 1014.41 1014.61 1014.73 1015.27 1015.65 1015.68 1015.75 1016.01 1016.23 1015.72 1014.28 1014.39 1013.83 1013.89 1013.04 1010.54 1010.27 1010.52 1010.57 1009.89 1009.67 1009.46 1008.89
1019.76 1019.67 1019.41 1019.09 1018.81 1018.42 1017.79 1017.18 1016.73 1016.34 1016.08 1016.31 1016.66 1016.41 1014.66 1013.09 1013.15 1013.19 1013.40 1013.81 1014.23 1014.42 1014.51 1014.80 1015.18 1015.79 1016.03 1016.40 1016.79 1016.74 1016.45 1015.87 1014.88 1013.60 1013.99 1013.94 1012.33 1010.80 1010.07 1010.30 1010.26 1009.58 1008.70 1008.55 1007.62
1019.36 1019.29 1019.23 1019.01 1018.71 1018.26 1017.49 1016.87 1016.70 1016.54 1016.68 1016.70 1016.24 1016.43 1013.68 1012.89 1012.96 1013.39 1013.54 1013.75 1014.30 1014.72 1015.11 1015.39 1016.03 1016.42 1016.99 1017.13 1017.01 1016.62 1016.70 1015.89 1015.20 1013.57 1013.48 1013.42 1011.94 1011.09 1010.49 1009.96 1009.18 1008.83 1007.94 1007.21 1006.60
1019.05 1018.97 1018.99 1018.93 1018.69 1018.19 1017.56 1017.21 1017.30 1017.29 1016.76 1015.97 1015.72 1014.57 1013.40 1013.28 1013.06 1013.58 1013.66 1014.03 1014.50 1015.06 1015.57 1015.95 1016.62 1016.35 1015.30 1015.84 1015.68 1016.29 1016.31 1015.79 1014.76 1013.87 1013.69 1012.51 1011.24 1010.73 1010.10 1009.62 1007.90 1007.28 1006.91 1005.96 1005.21
1018.79 1018.93 1018.87 1018.82 1018.66 1018.28 1018.25 1018.86 1019.48 1019.85 1017.84 1015.19 1014.74 1014.50 1013.68 1013.23 1013.47 1013.68 1013.73 1014.08 1014.75 1015.41 1015.96 1016.82 1016.57 1015.15 1015.51 1016.02 1016.58 1016.64 1016.29 1015.63 1014.21 1013.65 1013.59 1012.39 1010.27 1009.94 1009.12 1007.97 1007.56 1006.22 1005.52 1005.48 1004.96
1018.70 1018.54 1018.69 1018.65 1018.46 1018.68 1019.46 1019.66 1019.55 1019.76 1018.97 1015.23 1014.00 1013.64 1013.32 1013.40 1013.46 1013.70 1013.95 1014.29 1014.70 1015.48 1015.49 1015.55 1014.63 1014.83 1015.57 1015.95 1016.11 1016.26 1016.47 1015.21 1014.85 1014.15 1013.61 1012.22 1009.20 1008.87 1007.58 1006.82 1006.14 1005.85 1004.83 1005.36 1005.03
1018.60 1018.50 1018.66 1018.63 1018.86 1019.16 1019.47 1019.49 1019.61 1019.93 1018.65 1015.22 1013.81 1013.19 1013.13 1013.33 1013.88 1013.95 1014.00 1014.43 1014.85 1014.93 1015.43 1015.51 1014.47 1014.77 1015.53 1015.53 1015.54 1015.34 1014.87 1015.04 1015.28 1015.50 1014.61 1013.36 1008.43 1008.06 1007.13 1006.42 1005.75 1004.97 1005.41 1004.95 1004.64
1018.24 1018.42 1018.61 1018.63 1019.05 1019.06 1019.34 1019.39 1019.93 1020.17 1017.80 1014.38 1013.46 1013.10 1013.25 1013.53 1013.94 1014.20 1013.90 1014.13 1014.32 1014.84 1015.38 1014.49 1014.55 1014.78 1014.97 1014.61 1014.83 1013.86 1013.83 1014.79 1015.14 1015.42 1014.95 1014.03 1013.02 1007.07 1006.59 1006.29 1005.17 1005.00 1004.64 1004.83 1004.53
1018.09 1018.26 1018.54 1018.92 1019.17 1018.76 1018.82 1019.36 1019.97 1019.79 1016.17 1013.81 1013.05 1013.17 1013.48 1013.71 1013.90 1014.13 1014.20 1014.13 1014.62 1014.68 1014.76 1014.27 1013.89 1014.16 1013.70 1013.52 1013.79 1014.19 1014.49 1015.22 1016.09 1015.79 1014.93 1012.89 1012.45 1003.46 1006.25 1005.58 1004.99 1004.71 1004.61 1005.08 1005.11
1018.50 1018.10 1018.47 1018.52 1018.85 1018.80 1018.61 1019.52 1019.47 1017.55 1014.92 1013.86 1013.44 1013.55 1013.66 1013.92 1014.01 1014.17 1014.27 1014.33 1014.50 1014.65 1014.40 1014.13 1013.78 1012.95 1013.03 1013.66 1013.94 1014.43 1015.36 1015.90 1016.42 1016.59 1014.04 1012.06 1011.75 1006.87 1005.42 1005.05 1005.06 1005.05 1005.04 1005.23 1005.58
1018.50 1018.19 1017.85 1018.06 1018.82 1018.98 1018.81 1019.30 1018.36 1015.61 1014.61 1013.51 1013.67 1013.85 1014.29 1014.16 1014.14 1014.28 1014.28 1014.27 1013.89 1013.78 1013.97 1013.52 1012.12 1012.83 1012.93 1012.59 1012.83 1013.61 1014.30 1015.37 1014.79 1015.01 1013.45 1012.33 1009.65 1005.17 1005.53 1004.84 1004.29 1004.71 1005.35 1005.73 1005.81
1018.33 1017.79 1017.92 1017.65 1018.06 1018.84 1019.15 1018.17 1015.50 1014.85 1014.30 1013.64 1013.60 1013.80 1014.06 1014.23 1014.78 1014.94 1014.84 1013.99 1013.22 1013.08 1013.14 1012.88 1011.38 1011.60 1011.90 1012.02 1012.59 1013.28 1013.36 1013.00 1013.35 1013.22 1013.02 1011.11 1008.49 1006.43 1004.34 1004.37 1004.63 1005.14 1005.77 1006.65 1006.54
1018.99 1018.30 1017.16 1016.89 1017.59 1018.42 1018.64 1016.38 1015.41 1014.42 1014.05 1013.89 1013.68 1013.72 1013.76 1014.16 1014.62 1015.02 1014.36 1013.49 1012.92 1012.63 1012.37 1012.34 1011.92 1011.01 1011.23 1011.70 1011.94 1012.10 1012.44 1012.74 1013.35 1013.25 1011.51 1009.61 1008.19 1006.65 1004.98 1003.89 1005.59 1006.34 1006.91 1007.19 1007.18
1019.03 1018.37 1016.96 1016.43 1017.76 1018.07 1016.94 1015.42 1014.79 1014.28 1014.51 1014.27 1013.60 1013.70 1013.73 1014.05 1014.39 1014.29 1014.09 1013.97 1013.03 1012.67 1012.92 1013.03 1013.04 1011.92 1012.08 1011.78 1011.53 1012.24 1012.14 1012.43 1012.30 1012.21 1010.85 1009.21 1007.53 1006.64 1005.97 1006.05 1007.67 1008.60 1008.40 1008.97 1009.57
1018.64 1018.39 1017.29 1016.99 1017.70 1017.28 1015.91 1015.17 1014.99 1013.97 1014.34 1014.30 1013.52 1013.50 1013.87 1013.78 1013.98 1013.87 1013.33 1012.94 1012.72 1012.66 1013.07 1013.12 1012.37 1013.00 1011.80 1011.28 1011.26 1011.42 1011.82 1012.04 1011.96 1010.86 1010.15 1009.17 1007.89 1007.31 1007.39 1008.30 1010.30 1012.00 1012.06 1011.50 1011.15
1018.89 1018.25 1017.61 1016.93 1017.10 1016.59 1015.82 1015.21 1015.20 1014.36 1014.18 1014.19 1013.71 1013.79 1013.75 1013.88 1013.86 1013.40 1013.30 1012.73 1012.95 1013.36 1013.11 1013.48 1013.10 1012.87 1012.35 1011.74 1012.25 1012.40 1012.28 1012.31 1012.37 1011.99 1010.61 1010.23 1008.90 1008.83 1010.27 1012.15 1013.16 1013.46 1014.01 1013.37 1012.71
1019.78 1018.72 1017.80 1017.29 1016.96 1016.95 1016.48 1015.53 1015.00 1014.20 1013.84 1014.19 1014.09 1014.14 1014.25 1014.23 1014.05 1013.75 1013.97 1013.85 1013.61 1013.84 1013.87 1014.46 1013.76 1014.03 1013.27 1012.82 1013.12 1012.96 1012.66 1012.60 1012.88 1011.88 1011.06 1011.01 1011.02 1011.37 1012.87 1014.17 1014.91 1014.63 1014.23 1014.61 1014.11
1020.19 1019.70 1019.07 1018.16 1017.76 1017.44 1017.17 1016.19 1015.44 1014.81 1014.53 1014.61 1014.48 1014.49 1014.88 1014.96 1014.72 1014.74 1014.87 1014.84 1014.62 1014.43 1014.34 1014.54 1014.16 1014.33 1013.43 1013.73 1014.14 1013.91 1013.70 1013.23 1012.77 1012.83 1012.80 1012.06 1013.04 1014.39 1015.53 1016.20 1016.71 1016.30 1015.92 1015.29 1014.96
1020.56 1020.46 1019.54 1019.41 1018.74 1018.23 1017.43 1016.61 1016.44 1015.13 1015.98 1015.36 1015.65 1015.47 1015.83 1016.00 1016.33 1016.09 1016.48 1016.55 1015.85 1015.56 1015.67 1015.53 1015.46 1015.75 1015.00 1014.54 1014.76 1014.26 1013.59 1012.85 1012.74 1012.33 1012.86 1013.56 1014.53 1016.26 1016.62 1016.88 1016.65 1016.38 1016.36 1016.12 1015.24
1020.80 1020.78 1020.47 1019.55 1019.29 1019.05 1018.22 1017.74 1017.55 1017.51 1017.15 1017.17 1017.30 1017.06 1017.05 1017.29 1017.75 1017.77 1017.84 1017.80 1017.60 1017.24 1016.91 1017.00 1016.84 1016.80 1015.71 1015.94 1015.80 1014.60 1013.10 1013.05 1012.47 1012.27 1013.75 1014.63 1015.82 1016.55 1016.91 1016.66 1016.06 1015.87 1015.99 1015.56 1015.20
Wind_Speed
11 11 12 13 13 14 13 13 14 14 13 13 13 13 14 13 9 1 6 9 5 13 7 6 3 3 3 3 3 3 4 3 6 5 6 2 1 2 1 3 3 8 6 4 3
11 11 12 12 13 13 13 13 14 14 14 14 14 14 13 12 2 6 9 6 9 13 6 7 5 4 2 2 1 5 4 8 6 5 5 3 4 5 1 5 6 6 7 3 5
9 10 11 13 13 14 14 13 13 13 13 13 14 14 14 7 5 7 1 5 11 8 5 3 6 5 2 2 5 5 7 6 6 8 5 4 4 4 5 8 11 10 9 6 7
8 10 11 12 13 14 14 14 14 14 13 12 12 14 14 2 6 2 2 7 9 7 6 5 4 4 4 5 4 3 8 7 4 4 2 5 6 6 8 21 8 14 8 5 10
9 9 10 12 14 14 14 15 14 15 15 13 12 11 2 2 11 2 7 9 6 4 6 5 4 5 4 4 3 5 5 6 7 4 8 6 14 8 10 20 8 8 9 12 10
10 10 11 12 14 16 16 17 17 16 15 12 10 9 2 4 2 6 9 7 5 5 5 7 7 7 5 5 7 2 4 7 5 6 7 8 19 5 13 7 13 6 13 12 12
10 11 11 12 14 16 17 18 18 17 16 12 5 0 2 16 2 7 7 4 6 6 5 4 4 3 3 4 2 3 8 9 6 6 8 7 11 12 21 3 14 14 12 11 14
10 10 11 12 13 15 18 19 20 19 15 9 5 2 9 1 5 6 4 4 4 3 3 4 5 5 4 2 6 3 1 5 2 4 4 8 11 23 7 6 13 14 11 11 14
9 10 11 11 13 16 19 20 12 8 6 11 5 4 10 4 2 2 4 5 5 3 3 3 4 3 2 3 5 3 7 8 11 11 6 9 11 15 6 6 10 13 14 12 19
8 9 10 12 13 17 21 14 3 2 4 3 0 2 6 5 2 4 2 6 5 5 3 3 5 3 2 4 8 9 6 7 7 8 6 6 18 14 16 12 18 18 20 20 21
9 9 9 11 13 17 10 4 5 2 3 9 4 5 4 2 1 4 2 4 4 4 6 1 5 10 21 14 5 3 6 12 8 8 4 20 23 18 16 13 26 22 18 21 20
9 8 9 10 12 12 3 5 1 1 9 7 8 9 5 2 2 2 4 6 5 6 5 5 7 18 2 2 6 6 11 18 14 15 6 14 22 18 20 20 21 24 24 17 17
8 5 8 9 10 5 3 0 2 4 3 11 5 4 4 6 7 6 8 4 5 6 10 12 11 4 6 3 8 4 7 17 14 7 6 10 14 8 10 8 13 19 21 9 14
7 5 5 9 2 0 1 2 2 1 4 9 3 2 2 1 2 1 0 2 2 9 5 6 4 6 3 7 10 15 12 13 10 6 7 5 19 6 9 10 9 15 8 13 12
6 6 3 1 1 0 2 3 1 2 8 5 2 1 1 5 2 1 2 2 5 5 3 8 3 2 4 11 8 12 5 7 4 5 5 1 4 2 4 7 11 9 8 7 9
8 5 7 2 0 1 6 5 2 3 11 4 1 1 1 1 1 2 2 3 1 2 3 8 0 6 9 8 10 2 2 5 5 2 7 10 9 18 4 4 2 8 14 10 10
10 7 6 2 1 5 5 2 2 8 4 2 1 1 2 4 3 4 5 5 6 2 4 2 6 4 4 3 1 3 4 4 4 1 11 3 3 15 11 15 8 10 9 7 9
13 7 6 4 3 4 2 2 9 4 7 1 2 3 5 4 4 3 4 4 7 3 2 5 16 7 5 10 10 9 11 8 8 6 12 4 8 19 7 8 11 6 7 6 10
14 1 2 4 6 2 1 8 9 6 5 3 1 2 4 3 3 1 5 5 7 11 8 5 11 3 6 4 4 4 6 4 3 5 3 13 15 15 17 7 3 2 6 8 10
2 3 4 7 9 3 5 21 7 5 1 0 5 6 4 3 1 2 6 2 5 9 2 4 12 6 2 3 5 7 3 2 1 4 9 7 15 13 23 26 6 9 10 13 9
2 3 2 8 6 3 10 11 11 10 8 6 3 8 7 4 5 6 2 5 5 2 4 2 3 7 1 7 11 2 4 4 2 6 13 19 14 11 22 22 10 11 12 15 18
2 3 0 5 7 4 14 7 8 21 13 8 8 18 18 15 19 19 17 10 5 4 5 10 5 11 20 6 6 6 12 7 12 11 10 11 10 12 13 16 20 20 16 17 18
3 2 1 1 8 10 9 7 10 19 20 4 6 8 13 15 12 13 13 3 7 5 3 4 4 4 6 6 4 2 2 4 10 5 12 13 7 8 16 20 19 18 17 17 16
1 1 2 2 6 6 13 15 16 9 11 9 15 13 16 20 17 12 4 4 3 2 4 3 5 12 16 15 8 11 11 11 14 10 13 14 20 12 14 15 17 13 15 18 18
1 3 1 3 7 13 11 9 15 12 2 5 4 9 9 11 10 10 8 4 1 3 3 2 14 16 18 11 7 7 13 18 16 16 12 19 19 5 10 14 14 12 16 14 17
3 2 2 3 5 5 4 13 20 24 15 20 19 18 15 15 13 16 6 4 5 3 2 3 3 5 12 18 13 19 18 18 21 20 15 19 8 2 2 7 9 8 10 15 15
1 2 0 3 1 2 3 4 4 5 7 7 8 6 9 5 3 2 4 5 5 2 2 2 3 5 18 12 8 13 22 21 18 17 2 8 4 2 4 8 11 11 8 12 12
Wind_Direction
23 21 19 13 8 5 3 360 357 354 352 348 344 340 339 339 319 180 237 214 170 151 101 117 76 87 69 92 91 126 64 242 252 184 249 197 259 225 139 267 220 208 216 233 98
8 6 8 9 7 2 357 353 351 349 345 344 339 335 334 335 302 249 251 195 140 151 109 145 152 126 78 132 107 111 142 228 213 208 245 282 202 267 268 256 257 273 260 163 143
356 355 355 354 355 356 354 350 345 342 340 341 337 334 331 320 339 255 312 193 165 157 123 108 106 120 165 150 198 178 209 216 244 225 262 270 282 219 167 275 227 222 242 197 182
332 333 337 339 341 342 345 342 338 334 332 334 336 334 326 253 299 310 106 150 146 106 99 100 91 129 180 209 186 230 244 225 246 201 289 266 303 261 180 256 222 224 234 174 203
312 316 319 324 328 331 331 331 328 324 324 327 332 340 357 30 251 130 104 111 100 101 148 139 142 140 200 207 183 219 241 248 244 270 262 299 264 238 241 257 260 256 245 237 228
305 311 314 317 321 324 323 322 320 314 312 313 324 327 120 243 236 142 128 124 134 131 153 140 190 199 218 224 189 226 257 270 290 243 239 209 269 148 256 275 280 219 252 242 231
304 310 313 316 317 318 316 314 311 307 299 292 291 274 169 235 95 137 136 165 157 154 158 189 169 154 164 284 275 303 312 314 213 244 233 167 296 230 251 262 268 275 265 268 238
306 309 311 313 314 314 312 312 311 306 293 258 192 168 240 37 110 123 154 106 108 142 150 162 165 182 185 311 356 306 177 304 9 128 262 154 256 273 249 240 268 275 278 277 274
302 308 312 312 314 314 313 313 326 13 61 136 119 152 262 137 210 188 146 150 113 89 81 99 112 163 72 89 6 332 249 224 301 214 195 184 253 255 283 199 259 273 272 270 274
287 297 307 313 320 319 317 315 249 39 62 238 300 44 278 256 121 84 25 126 124 118 72 77 59 115 29 113 236 233 236 253 244 276 180 229 252 273 286 286 263 264 275 272 268
277 286 303 316 324 327 344 355 4 347 35 201 229 247 351 328 81 55 124 87 89 77 172 140 122 200 221 201 243 181 237 251 263 263 298 278 276 269 269 274 278 276 267 267 266
269 289 306 320 332 337 32 64 192 242 309 250 230 267 236 224 309 131 145 143 151 200 110 47 223 231 49 145 234 249 269 271 276 262 248 272 272 277 263 252 254 269 277 277 287
279 280 301 323 338 34 33 66 146 161 241 287 212 200 237 156 220 219 160 141 156 173 200 211 235 189 181 158 239 206 233 264 266 303 253 299 278 234 275 248 257 262 263 281 261
286 291 298 320 21 151 327 173 178 242 289 274 273 306 87 208 253 296 254 147 224 231 192 230 294 202 132 208 200 263 225 256 271 350 277 3 296 174 233 263 275 268 279 264 285
298 291 243 109 227 63 204 139 103 6 293 266 214 345 38 166 146 320 171 107 195 184 143 250 195 162 170 219 156 239 175 236 190 202 319 276 285 106 101 229 272 295 276 282 315
7 302 150 130 74 213 127 112 47 13 250 303 124 258 179 280 204 87 138 72 68 179 224 243 325 179 218 217 186 110 97 57 45 94 281 186 177 300 158 242 273 316 319 331 329
352 0 164 144 243 148 124 334 348 225 328 306 295 306 262 229 233 180 161 170 186 214 236 211 216 219 166 221 113 138 77 316 331 25 231 89 151 254 293 280 265 278 278 301 326
335 316 194 167 137 154 89 72 240 199 228 335 310 9 253 179 260 196 130 237 224 154 142 212 294 178 180 194 197 183 170 174 218 249 282 94 243 265 246 277 260 272 264 324 324
323 229 195 194 153 172 175 216 230 182 214 233 137 228 261 273 248 206 234 236 215 182 192 195 261 184 189 182 178 180 180 235 316 265 252 265 274 300 291 303 0 332 336 338 333
333 274 206 181 144 118 223 236 231 206 146 292 218 189 259 228 179 241 202 208 254 198 343 265 266 187 209 150 217 181 211 232 347 251 248 228 256 269 290 289 308 323 351 334 292
251 262 297 117 120 193 226 239 248 247 248 246 247 252 248 235 222 266 215 277 232 212 185 226 247 273 118 204 205 195 236 222 232 203 259 266 256 255 272 298 15 353 337 7 20
208 220 117 146 196 230 234 231 238 263 269 279 259 259 260 267 272 265 245 210 197 178 179 220 201 237 255 235 220 195 252 239 239 251 244 268 263 298 326 340 22 39 22 3 11
191 263 210 344 227 228 247 258 250 265 266 267 264 256 268 267 279 245 244 243 290 279 292 7 229 285 305 325 41 121 292 276 279 273 243 262 269 305 8 30 20 19 6 4 3
261 233 242 232 263 254 254 262 265 246 258 246 264 265 275 275 264 266 263 311 41 170 320 190 227 257 270 265 262 272 270 273 267 261 289 267 285 301 355 359 357 6 15 360 356
51 242 246 231 240 247 246 266 271 276 195 322 259 245 275 285 277 261 251 262 298 357 355 323 269 267 268 289 317 298 290 286 263 265 264 288 285 28 12 353 352 358 358 0 352
162 214 353 286 305 300 234 244 256 269 276 270 267 276 279 269 258 283 288 193 236 356 25 128 286 337 297 293 292 281 270 260 266 278 262 258 260 17 316 326 332 335 346 343 342
324 316 81 259 343 143 220 285 314 15 55 46 13 327 296 315 14 8 300 289 280 298 241 251 271 262 269 285 298 277 251 252 254 263 270 250 112 216 279 312 328 322 324 341 332